Jaffrey, NH

12:50 PM EDT on April 24, 2017 (GMT -0400)
Jaffrey Airport-Silver Ranch

Weather History for KAFN - July, 2013

Change the Weather History Date:

Wednesday, July 24, 2013

  Actual Average Record
Temperature  
Mean Temperature 68 °F -  
Max Temperature 78 °F 75 °F 90 °F (2001)
Min Temperature 57 °F 55 °F 46 °F (1997)
Cooling Degree Days 3    
Growing Degree Days 18 (Base 50)    
Moisture  
Dew Point 61 °F    
Average Humidity 75    
Maximum Humidity 97    
Minimum Humidity 50    
Precipitation  
Precipitation 0.01 in - - ()
Sea Level Pressure  
Sea Level Pressure 29.75 in    
Wind  
Wind Speed 3 mph (WSW)    
Max Wind Speed 10 mph    
Max Gust Speed 17 mph    
Visibility 10 miles    
Events      
Averages and records for this station are not official NWS values.
T = Trace of Precipitation, MM = Missing Value Source: NWS Daily Summary

Daily Weather History Graph

Daily Weather History Graph

Search for Another Location

Airport or City:

Trip Planner

Search our weather history database for the weather conditions in past years. The results will help you decide how hot, cold, wet, or windy it might be!

Date:

Astronomy

Jul. 24, 2013 Rise Set
Actual Time 5:31 AM EDT 8:16 PM EDT
Civil Twilight 4:58 AM EDT 8:49 PM EDT
Nautical Twilight 4:16 AM EDT 9:31 PM EDT
Astronomical Twilight 3:28 AM EDT 10:18 PM EDT
Moon 9:15 PM EDT 7:52 AM EDT
Length of Visible Light 15h 51m
Length of Day
14h 45m
Waning Gibbous, 95% of the Moon is Illuminated
Jul 24
Waning Gibbous
Jul 29
Last Quarter
Aug 6
New
Aug 14
First Quarter
Aug 20
Full

Hourly Weather History & Observations

Time (EDT) Temp. Dew Point Humidity Pressure Visibility Wind Dir Wind Speed Gust Speed Precip Events Conditions
12:52 AM 66.0 °F 64.0 °F 93% 29.64 in 10.0 mi Calm Calm - N/A   Clear
1:40 AM 66.2 °F 64.4 °F 94% 29.63 in 10.0 mi Calm Calm - N/A   Scattered Clouds
1:52 AM 66.0 °F 64.9 °F 96% 29.63 in 10.0 mi South 4.6 mph - N/A   Partly Cloudy
2:33 AM 68.0 °F 66.2 °F 94% 29.64 in 6.0 mi SSW 3.5 mph - N/A   Mostly Cloudy
2:52 AM 68.0 °F 66.9 °F 96% 29.63 in 3.0 mi SSW 3.5 mph - N/A   Overcast
3:52 AM 66.9 °F 66.0 °F 97% 29.64 in 8.0 mi South 3.5 mph - N/A   Overcast
4:09 AM 68.0 °F 66.2 °F 94% 29.64 in 10.0 mi Calm Calm - 0.01 in   Overcast
4:52 AM 66.9 °F 64.9 °F 93% 29.64 in 10.0 mi SSE 4.6 mph - 0.01 in   Partly Cloudy
5:52 AM 66.9 °F 66.0 °F 97% 29.65 in 10.0 mi Calm Calm - N/A   Clear
6:52 AM 68.0 °F 66.0 °F 93% 29.65 in 10.0 mi South 4.6 mph - N/A   Clear
7:52 AM 69.1 °F 66.0 °F 90% 29.68 in 10.0 mi SSW 4.6 mph - N/A   Mostly Cloudy
8:52 AM 73.0 °F 66.0 °F 79% 29.69 in 10.0 mi WSW 5.8 mph - N/A   Clear
9:37 AM 75.2 °F 64.4 °F 69% 29.70 in 10.0 mi West 5.8 mph - N/A   Mostly Cloudy
9:52 AM 77.0 °F 64.0 °F 64% 29.70 in 10.0 mi Variable 4.6 mph - N/A   Overcast
10:52 AM 75.9 °F 63.0 °F 64% 29.73 in 10.0 mi West 9.2 mph 17.3 mph N/A   Mostly Cloudy
11:52 AM 75.9 °F 60.1 °F 58% 29.75 in 10.0 mi WNW 8.1 mph - N/A   Mostly Cloudy
12:52 PM 75.0 °F 61.0 °F 62% 29.76 in 10.0 mi WNW 8.1 mph - N/A   Mostly Cloudy
1:52 PM 75.9 °F 57.0 °F 52% 29.76 in 10.0 mi WNW 10.4 mph 17.3 mph N/A   Mostly Cloudy
2:52 PM 77.0 °F 59.0 °F 54% 29.77 in 10.0 mi Variable 4.6 mph - N/A   Mostly Cloudy
3:52 PM 75.0 °F 57.0 °F 53% 29.79 in 10.0 mi WNW 6.9 mph - N/A   Mostly Cloudy
4:52 PM 75.0 °F 55.9 °F 51% 29.81 in 10.0 mi Variable 6.9 mph - N/A   Mostly Cloudy
5:52 PM 75.9 °F 55.9 °F 50% 29.82 in 10.0 mi Variable 5.8 mph - N/A   Mostly Cloudy
6:52 PM 73.0 °F 57.0 °F 57% 29.85 in 10.0 mi NW 4.6 mph - N/A   Clear
7:52 PM 69.1 °F 55.9 °F 63% 29.89 in 10.0 mi Calm Calm - N/A   Mostly Cloudy
8:52 PM 64.9 °F 55.0 °F 70% 29.94 in 10.0 mi Variable 3.5 mph - N/A   Clear
9:52 PM 62.1 °F 54.0 °F 75% 29.96 in 10.0 mi Calm Calm - N/A   Scattered Clouds
10:52 PM 59.0 °F 50.0 °F 72% 29.99 in 10.0 mi Variable 5.8 mph - N/A   Partly Cloudy
11:52 PM 57.0 °F 48.0 °F 72% 30.02 in 10.0 mi Variable 4.6 mph - N/A   Partly Cloudy